Regional Weather Roundup
Issued by NWS Goodland, KS

Home | Current Version | Previous Version | Graphics & Text | Print | Product List | Glossary On
Versions: 1 2 3 4 5 6 7 8 9 10 11 12 13 14 15 16 17 18 19 20 21 22 23 24 25 26 27 28 29 30 31 32 33 34 35 36 37 38 39 40 41 42 43 44 45 46 47 48 49 50
000
ASUS43 KGLD 191508
RWRGLD

GOODLAND FORECAST AREA HOURLY WEATHER ROUNDUP
NATIONAL WEATHER SERVICE GOODLAND KS
800 AM MST MON FEB 19 2018

...OFFICIAL OBSERVATIONS...

CITY           SKY/WX    TMP DP  RH WIND       PRES   REMARKS
GOODLAND KS    LGT SNOW  14  10  84 N17       29.79R FOG     WCI  -3
HILL CITY KS   CLOUDY    19  14  81 N22       29.85R WCI   2
IMPERIAL NEB   FLURRIES  13   9  84 N16       29.84R WCI  -3
MCCOOK NEB     CLOUDY    16  11  80 N14       29.86R HAZE    WCI   2
AKRON CO       LGT SNOW   8   6  92 N13       29.75R FOG     WCI  -8
BURLINGTON CO  LGT SNOW  12  10  92 N12       29.76R FOG     WCI  -2
LIMON CO       LGT SNOW   9   8  96 N8        29.70R FOG
$$

...UNOFFICIAL OBSERVATIONS...

CITY           SKY/WX    TMP DP  RH WIND       PRES   REMARKS
COLBY KS       CLOUDY    18  14  86 N16       29.84R WCI   3
LENORA KS        N/A     16  32 100 CALM        N/A
NORTON KS      CLOUDY    18  10  73 N12       29.85  WCI   5
SHARON SPRINGS   N/A     17  13  82 N10G17      N/A  WCI   5
TRENTON NEB      N/A     13  32 100 N10         N/A  WCI   0
KIT CARSON CO    N/A     13   9  83 MISG        N/A
$$




USA.gov is the U.S. government's official web portal to all federal, state and local government web resources and services.